Weather History for Valparaiso, IN

Change the Weather History Date:

Tuesday, September 18, 2012

  Actual Average Record
Temperature  
Mean Temperature 55 °F 63 °F  
Max Temperature 62 °F 74 °F 89 °F (2007)
Min Temperature 48 °F 52 °F 43 °F (2009)
Degree Days  
Heating Degree Days 10 4  
Month to date heating degree days 31 39  
Since 1 July heating degree days 37 56  
Cooling Degree Days 0 2  
Month to date cooling degree days 76 53  
Year to date cooling degree days 1049 689  
Growing Degree Days 5 (Base 50)    
Moisture  
Dew Point 46 °F    
Average Humidity 68    
Maximum Humidity 88    
Minimum Humidity 39    
Precipitation  
Precipitation T in 0.09 in 1.94 in (2013)
Month to date precipitation 1.84 1.98  
Year to date precipitation 20.63 27.52  
Sea Level Pressure  
Sea Level Pressure 29.85 in    
Wind  
Wind Speed 8 mph (NW)    
Max Wind Speed 21 mph    
Max Gust Speed 31 mph    
Visibility 10 miles    
Events Rain    
T = Trace of Precipitation, MM = Missing Value Source: NWS Daily Summary

Daily Weather History Graph

Daily Weather History Graph

Search for Another Location

Airport:

Trip Planner

Search our weather history database for the weather conditions in past years. The results will help you decide how hot, cold, wet, or windy it might be!

Date:

Astronomy

Sep. 18, 2012 Rise Set
Actual Time 6:31 AM CDT 6:51 PM CDT
Civil Twilight 6:04 AM CDT 7:18 PM CDT
Nautical Twilight 5:31 AM CDT 7:51 PM CDT
Astronomical Twilight 4:58 AM CDT 8:24 PM CDT
Moon 9:34 AM CDT (9/18) 8:10 PM CDT (9/18)
Length of Visible Light 13h 14m
Length of Day
12h 19m
Waxing Crescent, 9% of the Moon is Illuminated
Sep 18
Waxing Crescent
Sep 22
First Quarter
Sep 29
Full
Oct 8
Last Quarter
Oct 15
New

Hourly Weather History & Observations

Time (CDT) Temp. Dew Point Humidity Pressure Visibility Wind Dir Wind Speed Gust Speed Precip Events Conditions
12:05 AM 60.8 °F 57.2 °F 88% 29.75 in 10.0 mi North 9.2 mph 16.1 mph 0.00 in   Overcast
12:20 AM 62.6 °F 57.2 °F 82% 29.75 in 10.0 mi North 6.9 mph - 0.00 in   Overcast
12:53 AM 61.0 °F 57.0 °F 87% 29.75 in 7.0 mi NW 6.9 mph 16.1 mph 0.01 in Rain Light Rain
1:53 AM 60.1 °F 55.9 °F 86% 29.74 in 10.0 mi NW 6.9 mph - 0.01 in   Overcast
2:21 AM 60.8 °F 55.4 °F 82% 29.75 in 10.0 mi NW 6.9 mph - N/A   Overcast
3:05 AM 60.8 °F 53.6 °F 77% 29.74 in 10.0 mi NNW 9.2 mph 17.3 mph N/A   Overcast
3:16 AM 60.8 °F 53.6 °F 77% 29.74 in 10.0 mi NNW 6.9 mph 19.6 mph N/A   Overcast
3:27 AM 60.8 °F 53.6 °F 77% 29.74 in 10.0 mi NNW 5.8 mph - N/A   Overcast
3:53 AM 60.1 °F 53.1 °F 78% 29.73 in 10.0 mi NW 10.4 mph 19.6 mph N/A   Overcast
4:53 AM 57.0 °F 53.1 °F 87% 29.75 in 7.0 mi NW 10.4 mph 23.0 mph 0.00 in Rain Light Rain
5:53 AM 55.9 °F 51.1 °F 84% 29.76 in 10.0 mi NW 10.4 mph 19.6 mph 0.00 in   Overcast
6:43 AM 55.4 °F 48.2 °F 77% 29.78 in 10.0 mi NW 12.7 mph 21.9 mph N/A   Overcast
6:53 AM 55.9 °F 48.9 °F 77% 29.78 in 10.0 mi NW 11.5 mph 19.6 mph N/A   Mostly Cloudy
7:53 AM 55.9 °F 48.0 °F 75% 29.80 in 10.0 mi NW 10.4 mph 20.7 mph N/A   Scattered Clouds
8:53 AM 57.0 °F 46.9 °F 69% 29.82 in 10.0 mi NW 12.7 mph 21.9 mph N/A   Scattered Clouds
9:31 AM 55.4 °F 48.2 °F 77% 29.84 in 10.0 mi NW 9.2 mph 20.7 mph N/A   Overcast
9:53 AM 55.9 °F 46.9 °F 72% 29.84 in 10.0 mi WNW 11.5 mph 20.7 mph N/A   Overcast
10:29 AM 57.2 °F 46.4 °F 67% 29.85 in 10.0 mi WNW 15.0 mph 27.6 mph N/A   Overcast
10:53 AM 59.0 °F 46.0 °F 62% 29.86 in 10.0 mi NW 11.5 mph 23.0 mph N/A   Mostly Cloudy
11:53 AM 59.0 °F 45.0 °F 60% 29.87 in 10.0 mi NNW 12.7 mph 27.6 mph N/A   Mostly Cloudy
12:53 PM 59.0 °F 42.1 °F 53% 29.88 in 10.0 mi NNW 10.4 mph 25.3 mph N/A   Scattered Clouds
1:53 PM 62.1 °F 39.9 °F 44% 29.89 in 10.0 mi NNW 10.4 mph 24.2 mph N/A   Mostly Cloudy
2:53 PM 59.0 °F 35.1 °F 41% 29.91 in 10.0 mi NNW 13.8 mph 24.2 mph N/A   Clear
3:53 PM 59.0 °F 35.1 °F 41% 29.93 in 10.0 mi North 9.2 mph 25.3 mph N/A   Scattered Clouds
4:53 PM 59.0 °F 34.0 °F 39% 29.94 in 10.0 mi NW 8.1 mph - N/A   Mostly Cloudy
5:53 PM 57.9 °F 33.1 °F 39% 29.96 in 10.0 mi NW 6.9 mph 16.1 mph N/A   Mostly Cloudy
6:53 PM 55.9 °F 35.1 °F 45% 29.97 in 10.0 mi NW 3.5 mph - N/A   Mostly Cloudy
7:53 PM 50.0 °F 36.0 °F 59% 29.99 in 10.0 mi West 5.8 mph - N/A   Clear
8:53 PM 48.0 °F 36.0 °F 63% 30.01 in 10.0 mi West 3.5 mph - N/A   Clear
9:53 PM 48.9 °F 36.0 °F 61% 30.03 in 10.0 mi Calm Calm - N/A   Scattered Clouds
10:53 PM 48.0 °F 37.9 °F 68% 30.03 in 10.0 mi Calm Calm - N/A   Scattered Clouds
11:53 PM 48.0 °F 37.9 °F 68% 30.05 in 10.0 mi Calm Calm - N/A   Mostly Cloudy